DW2408 Weather Reports


time (UTC)temp
C
wind
direction
speed
KPH
gust
KPH
rain 1hr
cm
rain 24hr
cm
rain mn
cm
humidity
%
barometer
mb
20260503194553 16 0 1.6 12.9 0.00 0.00 0.00 71 1013.5
20260503194038 16 0 0.0 16.1 0.00 0.00 0.00 72 1013.4
20260503193542 16 0 0.0 16.1 0.00 0.00 0.00 73 1013.6
20260503193054 16 0 0.0 14.5 0.00 0.00 0.00 73 1013.5
20260503192537 16 215 0.0 16.1 0.00 0.00 0.00 74 1013.6
20260503192037 15 182 3.2 16.1 0.00 0.00 0.00 73 1013.6
20260503191556 15 0 3.2 16.1 0.00 0.00 0.00 73 1013.7
20260503191039 15 0 3.2 16.1 0.00 0.00 0.00 72 1013.6
20260503190542 15 167 3.2 16.1 0.00 0.00 0.00 72 1013.7
20260503185541 15 153 1.6 14.5 0.00 0.00 0.00 74 1013.7
20260503185038 15 0 1.6 12.9 0.00 0.00 0.00 75 1013.7
20260503184549 15 0 0.0 11.3 0.00 0.00 0.00 76 1013.7
20260503184038 15 0 0.0 19.3 0.00 0.00 0.00 75 1013.7
20260503183540 15 0 0.0 19.3 0.00 0.00 0.00 76 1013.8
20260503183049 15 103 3.2 19.3 0.00 0.00 0.00 76 1013.8
20260503182540 15 0 3.2 17.7 0.00 0.00 0.00 75 1013.7
20260503182038 15 0 0.0 12.9 0.00 0.00 0.00 77 1013.6
20260503181559 15 0 0.0 12.9 0.00 0.00 0.00 77 1013.6
20260503181042 15 0 1.6 12.9 0.00 0.00 0.00 77 1013.6
20260503180540 15 0 1.6 14.5 0.00 0.00 0.00 77 1013.6
20260503180055 15 0 1.6 14.5 0.00 0.00 0.00 77 1013.5
20260503175539 15 187 1.6 12.9 0.00 0.00 0.00 78 1013.5
20260503175039 15 213 0.0 12.9 0.00 0.00 0.00 79 1013.4
20260503174550 15 0 0.0 12.9 0.00 0.00 0.00 80 1013.3
20260503174039 15 213 0.0 11.3 0.00 0.00 0.00 81 1013.2
20260503173539 14 0 0.0 9.7 0.00 0.00 0.00 81 1013.4
20260503173051 14 0 0.0 9.7 0.00 0.00 0.00 81 1013.3
20260503172539 14 0 0.0 16.1 0.00 0.00 0.00 81 1013.4
20260503172039 14 0 0.0 16.1 0.00 0.00 0.00 82 1013.6
20260503171549 13 0 1.6 16.1 0.00 0.00 0.00 82 1013.4
20260503171041 13 185 0.0 9.7 0.00 0.00 0.00 82 1013.4
20260503170539 13 0 0.0 9.7 0.00 0.00 0.00 83 1013.4
20260503150542 12 0 0.0 0.0 0.00 0.00 0.00 85 1012.7
20260503131042 11 0 0.0 0.0 0.00 0.00 0.00 85 1011.4
20260503130541 11 0 0.0 0.0 0.00 0.00 0.00 85 1011.2
20260503110541 11 0 0.0 0.0 0.00 0.00 0.00 86 1011.4
20260503100105 11 0 0.0 0.0 0.00 0.00 0.00 86 1011.3
20260503081600 11 0 0.0 0.0 0.00 0.00 0.00 86 1012.1
20260503081040 11 0 0.0 0.0 0.00 0.00 0.00 86 1012.3
20260503080540 11 0 0.0 0.0 0.00 0.00 0.00 86 1012.3
20260503072540 11 0 0.0 0.0 0.00 0.00 0.00 86 1012.1
20260503072041 11 0 0.0 0.0 0.00 0.00 0.00 86 1012.1
20260503071551 12 0 0.0 0.0 0.00 0.00 0.00 86 1012.2
20260503071041 11 0 0.0 0.0 0.00 0.00 0.00 86 1012.3
20260503070541 12 0 0.0 0.0 0.00 0.00 0.00 86 1012.3
20260503060114 12 0 0.0 0.0 0.00 0.00 0.00 85 1012.5
20260503055040 12 0 0.0 0.0 0.00 0.00 0.00 85 1012.7
20260503054602 12 0 0.0 0.0 0.00 0.00 0.00 85 1012.8
20260503054043 12 0 0.0 0.0 0.00 0.00 0.00 85 1012.7
20260503053540 12 0 0.0 0.0 0.00 0.00 0.00 85 1012.6
20260503053048 12 0 0.0 0.0 0.00 0.00 0.00 85 1012.6
20260503052546 12 0 0.0 0.0 0.00 0.00 0.00 85 1012.7
20260503052045 12 0 0.0 0.0 0.00 0.00 0.00 85 1012.6
20260503051549 12 0 0.0 0.0 0.00 0.00 0.00 85 1012.7
20260503051042 12 0 0.0 0.0 0.00 0.00 0.00 85 1012.9
20260503050540 12 0 0.0 0.0 0.00 0.00 0.00 85 1012.9
20260503050053 12 0 0.0 0.0 0.00 0.00 0.00 85 1012.8
20260503045540 12 0 0.0 0.0 0.00 0.00 0.00 85 1012.7
20260503045040 12 0 0.0 0.0 0.00 0.00 0.00 85 1012.8
20260503044552 12 0 0.0 0.0 0.00 0.00 0.00 85 1012.7
20260503044040 12 0 0.0 0.0 0.00 0.00 0.00 85 1012.8
20260503043544 12 0 0.0 0.0 0.00 0.00 0.00 85 1012.8
20260503043050 12 0 0.0 0.0 0.00 0.00 0.00 85 1012.7
20260503042543 12 0 0.0 0.0 0.00 0.00 0.00 85 1012.5
20260503042042 12 0 0.0 0.0 0.00 0.00 0.00 84 1012.5
20260503041550 12 0 0.0 0.0 0.00 0.00 0.00 84 1012.5
20260503041040 12 0 0.0 0.0 0.00 0.00 0.00 84 1012.5
20260503040541 12 0 0.0 0.0 0.00 0.00 0.00 84 1012.5
20260503040050 12 0 0.0 0.0 0.00 0.00 0.00 84 1012.5
20260503035541 12 0 0.0 0.0 0.00 0.00 0.00 84 1012.5
20260503035041 12 0 0.0 0.0 0.00 0.00 0.00 84 1012.3
20260503034547 12 0 0.0 0.0 0.00 0.00 0.00 84 1012.2
20260503034040 12 0 0.0 0.0 0.00 0.00 0.00 84 1012.3
20260503033541 12 0 0.0 0.0 0.00 0.00 0.00 84 1012.2
20260503033047 12 0 0.0 0.0 0.00 0.00 0.00 84 1012.2
20260503032541 12 0 0.0 0.0 0.00 0.00 0.00 83 1012.0
20260503032040 12 0 0.0 0.0 0.00 0.00 0.00 83 1011.9
20260503031549 12 0 0.0 0.0 0.00 0.00 0.00 83 1011.8
20260503031040 12 0 0.0 0.0 0.00 0.00 0.00 83 1011.8
20260503030542 12 0 0.0 0.0 0.00 0.00 0.00 83 1011.8
20260503030049 12 0 0.0 0.0 0.00 0.00 0.00 83 1011.7
20260503025540 12 0 0.0 0.0 0.00 0.00 0.00 82 1011.7
20260503025042 13 0 0.0 0.0 0.00 0.00 0.00 82 1011.8
20260503024551 13 0 0.0 0.0 0.00 0.00 0.00 82 1011.8
20260503024041 13 0 0.0 0.0 0.00 0.00 0.00 82 1011.8
20260503023541 13 0 0.0 0.0 0.00 0.00 0.00 82 1011.6
20260503023050 13 0 0.0 0.0 0.00 0.00 0.00 82 1011.7
20260503022541 13 0 0.0 0.0 0.00 0.00 0.00 82 1011.7
20260503022042 13 0 0.0 0.0 0.00 0.00 0.00 82 1011.7
20260503021552 13 0 0.0 0.0 0.00 0.00 0.00 81 1011.6
20260503021040 13 0 0.0 0.0 0.00 0.00 0.00 81 1011.8
20260503020540 13 0 0.0 0.0 0.00 0.00 0.00 81 1011.5
20260503020050 13 0 0.0 0.0 0.00 0.00 0.00 80 1011.6
20260503015540 13 0 0.0 0.0 0.00 0.00 0.00 80 1011.6
20260503015039 13 0 0.0 0.0 0.00 0.00 0.00 79 1011.7
20260503014546 14 0 0.0 0.0 0.00 0.00 0.00 79 1011.7
20260503014040 14 0 0.0 0.0 0.00 0.00 0.00 79 1011.7
20260503013541 14 0 0.0 0.0 0.00 0.00 0.00 79 1011.7
20260503013053 14 0 0.0 0.0 0.00 0.00 0.00 79 1011.8
20260503012541 14 0 0.0 0.0 0.00 0.00 0.00 78 1011.7
20260503012110 14 0 0.0 0.0 0.00 0.00 0.00 78 1011.9
20260503011547 14 0 0.0 0.0 0.00 0.00 0.00 78 1011.9
20260503011043 15 0 0.0 0.0 0.00 0.00 0.00 78 1011.9
20260503010540 15 0 0.0 0.0 0.00 0.00 0.00 77 1011.8
20260503010052 15 0 0.0 0.0 0.00 0.00 0.00 77 1011.9
20260503005540 15 0 0.0 11.3 0.00 0.00 0.00 76 1011.9
20260503005044 15 0 0.0 11.3 0.00 0.00 0.00 76 1011.8
20260503004549 15 0 0.0 0.0 0.00 0.00 0.00 76 1012.0
20260503004040 15 0 0.0 11.3 0.00 0.00 0.00 76 1011.8
20260503003540 15 0 0.0 12.9 0.00 0.00 0.00 76 1012.0
20260503003046 15 0 0.0 19.3 0.00 0.00 0.00 76 1011.9
20260503002540 15 0 1.6 19.3 0.00 0.00 0.00 75 1012.0
20260503002040 15 0 0.0 0.0 0.00 0.00 0.00 75 1012.1
20260503001549 15 0 0.0 0.0 0.00 0.00 0.00 75 1012.0
20260503001040 15 0 0.0 0.0 0.00 0.00 0.00 75 1012.0
20260503000541 15 0 0.0 0.0 0.00 0.00 0.00 75 1012.0
20260503000051 15 0 0.0 14.5 0.00 0.00 0.00 75 1012.0
20260502235540 15 0 0.0 14.5 0.00 0.00 0.00 75 1012.1
20260502235039 15 0 0.0 11.3 0.00 0.00 0.00 75 1012.1
20260502234556 15 0 0.0 0.0 0.00 0.00 0.00 75 1012.2
20260502234041 15 0 0.0 0.0 0.00 0.00 0.00 76 1012.1
20260502233540 15 0 0.0 16.1 0.00 0.00 0.00 76 1012.2
20260502233048 15 0 0.0 16.1 0.00 0.00 0.00 77 1012.1
20260502232543 15 0 0.0 0.0 0.00 0.00 0.00 78 1012.2
20260502232040 15 0 0.0 0.0 0.00 0.00 0.00 78 1012.4
20260502231557 15 0 0.0 0.0 0.00 0.00 0.00 78 1012.4
20260502231040 15 0 0.0 16.1 0.00 0.00 0.00 78 1012.4
20260502230539 15 0 0.0 17.7 0.00 0.00 0.00 79 1012.6
20260502230053 15 0 0.0 17.7 0.00 0.00 0.00 79 1012.7
20260502225541 15 162 0.0 17.7 0.00 0.00 0.00 80 1012.7
20260502225040 14 0 1.6 24.1 0.00 0.00 0.00 80 1012.8
20260502224549 14 0 3.2 24.1 0.00 0.00 0.00 79 1012.9
20260502224040 14 166 4.8 19.3 0.00 0.00 0.00 79 1012.9
20260502223541 15 214 0.0 14.5 0.00 0.00 0.00 79 1013.1
20260502223054 15 0 0.0 16.1 0.00 0.00 0.00 79 1013.2
20260502222539 15 0 1.6 16.1 0.00 0.00 0.00 79 1013.3
20260502222039 15 184 0.0 17.7 0.00 0.00 0.00 80 1013.3
20260502221548 14 0 0.0 17.7 0.00 0.00 0.00 79 1013.3
20260502221043 14 111 6.4 19.3 0.00 0.00 0.00 79 1013.5
20260502220541 14 125 1.6 22.5 0.00 0.00 0.00 79 1013.3
20260502220051 14 0 9.7 27.4 0.00 0.00 0.00 79 1013.4
20260502215539 14 130 0.0 27.4 0.00 0.00 0.00 79 1013.4
20260502215039 14 194 8.0 25.7 0.00 0.00 0.00 78 1013.5
20260502214552 15 170 8.0 19.3 0.00 0.00 0.00 77 1013.6
20260502214041 15 142 4.8 20.9 0.00 0.00 0.00 77 1013.6
20260502213540 15 198 8.0 22.5 0.00 0.00 0.00 77 1013.4
20260502213105 15 218 4.8 22.5 0.00 0.00 0.00 77 1013.6
20260502212540 15 138 8.0 22.5 0.00 0.00 0.00 77 1013.6
20260502212040 15 184 6.4 25.7 0.00 0.00 0.00 76 1013.6
20260502211555 15 0 9.7 27.4 0.00 0.00 0.00 77 1013.6
20260502211039 15 119 4.8 27.4 0.00 0.00 0.00 77 1013.5
20260502210539 15 177 6.4 22.5 0.00 0.00 0.00 77 1013.7
20260502210046 15 111 6.4 27.4 0.00 0.00 0.00 77 1013.7
20260502205539 15 0 6.4 32.2 0.00 0.00 0.00 78 1013.8
20260502205043 15 115 12.9 32.2 0.00 0.00 0.00 77 1013.9
20260502204556 15 180 6.4 25.7 0.00 0.00 0.00 78 1013.9
20260502204040 15 126 3.2 24.1 0.00 0.00 0.00 79 1014.1
20260502203542 15 0 9.7 24.1 0.00 0.00 0.00 78 1014.1
20260502203052 15 192 3.2 22.5 0.00 0.00 0.00 79 1014.2
20260502202544 15 0 6.4 24.1 0.00 0.00 0.00 79 1014.2
20260502202040 15 0 4.8 24.1 0.00 0.00 0.00 80 1014.3
20260502201551 15 0 1.6 14.5 0.00 0.00 0.00 81 1014.2
20260502201040 15 0 1.6 16.1 0.00 0.00 0.00 81 1014.3
20260502200541 14 0 0.0 16.1 0.00 0.00 0.00 82 1014.2
20260502200048 14 170 1.6 20.9 0.00 0.00 0.00 82 1014.1
20260502195539 14 0 1.6 20.9 0.00 0.00 0.00 83 1014.3
20260502195039 14 0 0.0 0.0 0.00 0.00 0.00 84 1014.1